YAOGAN-24

Last updated on Mon Sep 21 2026 00:02:45 GMT+0000 (Coordinated Universal Time)

1 40310U 14072A 26263.59062851 .00000033 00000+0 12580-4 0 9992 2 40310 98.1627 41.7998 0013674 323.7233 36.3048 14.76185514637793
UTC large
Height (km)
Speed (km/s)
/
Latitude / Longitude
Inclination (degrees)
Orbital Period (minutes)
Azimuth
Elevation
Range (km)
Doppler Factor

Next 0 passes for location: London (51.5072 / 0.1276)

No passes found over London.
YAOGAN-24